Dati Storici

Data ora Umidita' aria (%) Temperatura aria (°C) Rad globale (W/m²) Gonioanemometro (°) Tacoanemometro (m/s) Pioggia (mm)
12-06-2020 16:50 67.4 % 23.196 -72.341 1.456 0 0
12-06-2020 16:40 65.5 % 23.17 -72.88 2.997 0 0
12-06-2020 16:30 66.4 % 23.223 -73.966 1.845 0 0
12-06-2020 16:20 67.3 % 23.266 -73.231 1.813 0 0
12-06-2020 16:10 68.2 % 23.199 -75.85 1.895 0 0
12-06-2020 16:00 67.2 % 22.998 -74.175 2.774 0 0
12-06-2020 15:50 67.3 % 22.877 -72.331 1.938 0 0
12-06-2020 15:40 66.8 % 22.964 -73.191 1.534 0 0
12-06-2020 15:30 67.5 % 23.384 -73.839 2.53 0 0
12-06-2020 15:20 66.2 % 22.54 -64.272 1.928 0 0
12-06-2020 15:10 65.2 % 22.912 -79.91 2.995 0 0
12-06-2020 15:00 65.4 % 23.186 -70.873 1.075 0 0
12-06-2020 14:50 63.2 % 23.453 -71.925 3.282 0 0
12-06-2020 14:40 63.4 % 23.324 -69.774 1.739 0 0
12-06-2020 14:30 62.8 % 23.814 -64.527 1.125 0 0
12-06-2020 14:20 65.1 % 23.181 -72.078 0.039 0 0
12-06-2020 14:10 65.3 % 23.629 -70.184 2.941 0 0
12-06-2020 14:00 67.2 % 22.848 -69.917 3.316 0 0
12-06-2020 13:50 68 % 22.882 -79.8 2.311 0 0
12-06-2020 13:40 65.8 % 22.63 -74.647 3.299 0 0

I dati sono presentati in modo automatico a scopo informativo. In seguito a verifica i dati possono subire modifiche o essere invalidati e non riportati negli archivi definitivi.